Theta_e
293 293 293 293 293 293 294 294 294 294 294 293 292 291 290 290 289 289 289 289 289 289 288 289 289 289 289 288 290 290 289 289
292 293 292 292 292 292 292 292 292 292 291 290 289 289 289 288 287 287 288 288 287 287 287 287 287 287 287 287 288 287 286 287
292 291 291 290 291 290 290 291 290 290 290 289 289 288 287 286 286 286 286 286 286 286 285 286 286 286 285 285 286 285 285 285
291 290 289 289 289 289 289 289 289 289 288 287 286 286 285 285 285 285 285 284 285 285 284 284 284 284 285 286 286 285 285 285
291 290 290 290 289 289 288 289 288 287 286 285 285 284 284 284 283 283 283 283 283 283 283 283 283 284 285 285 284 284 285 285
292 291 290 289 288 289 289 288 287 286 285 284 284 284 283 282 282 281 281 281 281 281 281 281 282 284 283 283 283 284 284 284
294 292 290 289 289 289 288 287 286 284 284 284 283 281 281 280 280 280 280 280 280 280 280 280 282 285 286 285 283 284 283 283
294 293 291 290 289 288 287 285 284 283 282 282 281 280 280 280 279 279 279 279 279 279 279 279 279 284 285 285 283 283 283 283
296 294 292 290 289 287 286 284 283 282 281 280 280 279 278 278 277 277 278 277 277 278 278 277 279 283 285 285 283 283 283 283
297 295 291 288 287 286 284 283 282 281 280 280 279 277 276 275 275 276 275 275 275 277 274 273 275 282 284 284 281 282 281 282
295 293 289 287 286 284 283 282 281 280 280 279 277 275 274 275 274 275 273 275 275 274 273 272 269 280 283 283 279 273 281 283
292 288 288 286 285 283 282 281 281 279 277 276 275 274 274 273 273 270 268 270 266 269 269 268 271 274 282 283 280 280 282 282
288 288 286 286 285 283 281 280 278 276 274 273 272 275 273 270 268 266 265 265 263 263 266 270 272 277 280 283 284 284 281 281
288 285 284 284 285 282 279 277 275 273 271 270 271 272 271 268 266 266 262 263 264 266 264 267 272 273 280 281 283 283 281 282
283 282 281 281 282 282 277 275 273 272 271 270 270 269 267 270 269 263 262 261 263 263 265 266 270 273 274 279 281 281 281 281
283 282 280 279 276 276 274 273 272 271 270 270 268 268 266 267 265 267 267 266 262 268 271 274 267 272 281 281 280 280 281 282
279 280 277 276 273 272 272 273 271 270 270 268 267 266 266 265 264 271 273 275 277 278 278 278 280 280 280 281 281 281 282 277
278 277 275 273 271 270 270 270 271 270 268 266 266 265 264 263 262 261 266 272 275 277 278 278 277 278 279 279 279 279 274 262
275 275 275 273 272 269 268 268 267 265 265 264 263 263 261 261 259 258 258 259 261 270 274 275 275 276 276 275 270 265 265 261
270 271 274 273 269 265 263 263 262 262 261 261 260 259 260 259 258 258 259 260 259 260 267 264 272 272 271 269 254 255 257 258
Wind_Speed
7 7 4 5 6 6 7 9 8 11 10 10 9 9 8 7 7 6 5 5 6 6 6 6 6 5 5 4 4 5 4 4
8 7 6 6 6 7 8 10 9 10 10 11 9 8 7 7 6 6 6 6 6 5 5 5 5 6 5 5 5 5 5 4
9 8 7 7 6 6 6 8 8 8 10 10 9 7 7 7 6 6 6 5 5 5 5 5 4 3 4 5 5 6 6 6
8 9 8 7 7 7 7 8 8 9 9 8 7 7 7 6 5 5 5 5 5 5 5 4 5 5 5 5 5 6 6 5
11 10 9 9 9 8 7 7 7 8 8 8 7 6 6 5 5 5 5 5 4 4 4 5 5 4 5 5 5 5 7 8
15 14 12 10 9 8 9 8 8 9 8 7 6 6 5 5 5 5 5 4 3 4 5 4 4 5 6 5 6 8 8 8
17 16 16 16 14 12 11 10 8 8 8 7 6 6 5 5 5 4 4 4 5 5 5 6 4 9 10 9 7 7 8 8
22 20 18 17 16 15 13 10 9 9 8 7 7 6 5 5 5 4 5 4 5 5 5 5 5 9 9 11 5 6 6 8
19 18 18 16 14 12 11 10 10 8 8 6 6 6 5 5 5 4 3 4 3 4 4 4 4 9 9 9 4 5 6 6
19 18 18 17 15 15 12 10 9 9 8 7 6 6 5 5 4 3 3 3 2 2 4 3 5 10 9 8 3 4 5 6
17 15 17 17 17 17 14 13 12 10 9 7 6 6 6 5 5 2 2 1 1 3 3 5 4 9 11 9 2 4 5 7
18 19 19 17 18 16 14 14 10 8 8 6 5 5 5 5 3 3 2 2 2 2 3 3 3 6 12 12 2 4 5 7
18 17 16 18 19 17 15 9 10 9 8 6 5 4 4 5 3 2 4 4 2 2 3 3 5 8 10 13 13 11 5 7
15 15 14 16 17 17 11 13 11 9 7 5 5 4 4 4 4 3 3 3 1 2 2 3 4 4 14 14 11 13 8 5
14 15 14 11 11 12 14 12 11 9 8 6 7 6 3 2 3 3 3 2 1 1 1 2 4 5 5 5 4 7 8 10
13 13 14 11 10 11 12 12 10 9 7 7 5 4 3 2 3 3 3 4 4 3 3 2 3 5 10 10 6 6 8 10
6 10 10 11 10 10 10 11 11 8 6 5 5 3 3 2 2 3 3 1 4 5 4 3 6 12 14 14 13 14 14 2
10 9 11 11 11 9 9 9 10 9 8 5 5 4 4 3 3 2 3 2 1 2 2 6 7 11 11 12 13 9 6 3
8 10 12 12 12 10 10 10 8 6 7 6 5 5 4 4 3 3 2 1 3 4 3 5 7 9 9 11 7 3 5 2
5 7 11 12 10 9 9 9 9 7 5 5 4 4 4 4 3 3 3 3 3 2 3 3 5 5 8 8 3 2 1 1
Wind_Direction
151 159 148 130 113 100 103 113 110 106 106 105 102 100 99 96 94 91 87 80 69 60 57 48 33 26 26 16 12 14 357 349
157 153 141 120 119 114 109 111 103 104 108 107 102 98 97 96 89 82 79 71 68 58 53 52 32 18 17 8 14 4 341 339
158 149 147 137 129 122 110 112 111 109 109 109 108 104 99 92 85 82 84 76 73 54 46 36 25 15 14 7 2 359 344 336
152 161 152 148 144 138 131 127 123 119 117 109 106 106 103 103 99 90 93 76 61 52 43 28 11 10 12 5 347 335 326 329
167 165 165 165 158 149 137 138 130 122 121 118 119 118 114 114 107 96 85 74 59 48 40 28 10 15 13 354 341 329 342 342
178 174 170 164 160 155 151 150 144 132 127 130 125 118 117 111 97 92 82 72 52 43 36 25 20 18 2 1 355 345 336 338
182 179 176 174 171 164 160 157 146 137 135 135 129 126 121 112 112 105 84 52 44 31 20 13 11 359 2 0 344 338 338 337
187 184 181 177 170 171 163 149 148 141 141 150 143 135 131 123 112 83 61 51 39 23 14 357 342 348 348 350 345 333 330 325
188 185 179 171 168 152 151 154 150 148 149 153 148 138 139 126 96 81 61 52 35 5 345 346 324 349 346 344 335 322 297 289
186 177 168 166 157 153 154 150 148 159 162 162 152 142 129 115 114 108 80 54 12 334 326 325 308 341 342 344 289 279 297 297
174 168 162 163 155 156 163 162 172 168 164 151 146 148 142 139 144 126 86 92 18 333 302 302 297 340 350 351 314 339 318 303
161 169 168 156 155 162 163 178 166 143 133 134 143 145 139 138 126 109 129 73 21 346 313 303 280 318 341 343 325 296 302 327
162 171 165 162 161 164 173 147 131 134 138 145 148 149 139 133 123 134 139 131 92 62 346 323 312 319 330 329 329 324 326 326
163 154 161 167 167 161 152 142 140 139 143 141 142 153 155 147 143 139 117 93 43 55 357 304 305 306 313 317 324 332 325 302
148 157 158 161 154 151 146 141 142 143 148 152 167 156 153 141 156 142 141 124 127 44 306 286 289 287 284 282 278 319 315 305
163 164 163 150 126 132 138 141 144 148 157 164 156 148 139 161 196 198 217 170 168 201 214 247 268 266 313 323 311 302 297 291
151 158 152 138 129 133 142 149 148 150 161 165 148 150 158 166 258 280 233 272 279 270 255 228 311 328 319 314 314 311 303 6
165 148 148 143 147 152 152 154 160 156 160 157 159 163 161 185 176 139 333 329 259 335 305 345 329 327 327 335 326 339 25 71
140 153 161 160 170 166 161 160 158 146 156 161 167 168 171 181 177 139 146 173 292 325 326 347 345 349 354 354 12 20 22 61
131 165 174 177 176 158 156 162 156 157 163 162 164 174 173 163 147 171 182 205 242 305 320 354 1 31 27 47 103 142 70 350